Weather History for Gillette, WY

Change the Weather History Date:

Sunday, January 6, 2013

  Actual Average Record
Temperature  
Mean Temperature 28 °F 26 °F  
Max Temperature 39 °F 37 °F - ()
Min Temperature 17 °F 14 °F - ()
Degree Days  
Heating Degree Days 37 39  
Month to date heating degree days 253 239  
Since 1 July heating degree days 3093 3380  
Cooling Degree Days 0 0  
Month to date cooling degree days 0 0  
Year to date cooling degree days 0 0  
Moisture  
Dew Point 16 °F    
Average Humidity 61    
Maximum Humidity 81    
Minimum Humidity 40    
Precipitation  
Precipitation 0.00 in 0.01 in - ()
Month to date precipitation 0.04 0.06  
Year to date precipitation 0.04 0.06  
Sea Level Pressure  
Sea Level Pressure 29.98 in    
Wind  
Wind Speed 15 mph (SSW)    
Max Wind Speed 38 mph    
Max Gust Speed 45 mph    
Visibility 10 miles    
Events      
T = Trace of Precipitation, MM = Missing Value Source: NWS Daily Summary

Daily Weather History Graph

Daily Weather History Graph

Search for Another Location

Airport:

Trip Planner

Search our weather history database for the weather conditions in past years. The results will help you decide how hot, cold, wet, or windy it might be!

Date:

Astronomy

Jan. 06, 2013 Rise Set
Actual Time 7:37 AM MST 4:38 PM MST
Civil Twilight 7:04 AM MST 5:11 PM MST
Nautical Twilight 6:28 AM MST 5:48 PM MST
Astronomical Twilight 5:53 AM MST 6:23 PM MST
Moon 1:50 AM MST (1/6) 12:12 PM MST (1/6)
Length of Visible Light 10h 06m
Length of Day
9h 01m
Waning Crescent, 32% of the Moon is Illuminated
Jan 6
Waning Crescent
Jan 11
New
Jan 18
First Quarter
Jan 26
Full
Feb 3
Last Quarter

Hourly Weather History & Observations

Time (MST) Temp. Windchill Dew Point Humidity Pressure Visibility Wind Dir Wind Speed Gust Speed Precip Events Conditions
12:53 AM 21.0 °F 10.6 °F 8.1 °F 57% 30.22 in 10.0 mi South 9.2 mph - N/A   Clear
1:53 AM 23.0 °F 17.0 °F 8.1 °F 53% 30.18 in 10.0 mi Variable 4.6 mph - N/A   Clear
2:53 AM 25.0 °F 10.9 °F 10.9 °F 55% 30.15 in 10.0 mi South 19.6 mph - N/A   Clear
3:53 AM 28.9 °F 18.2 °F 10.9 °F 47% 30.11 in 10.0 mi South 13.8 mph 25.3 mph N/A   Clear
5:53 AM 27.0 °F 19.5 °F 10.9 °F 51% 30.10 in 10.0 mi SSE 6.9 mph - N/A   Clear
6:53 AM 30.0 °F 16.0 °F 12.9 °F 49% 30.06 in 10.0 mi SSW 25.3 mph 31.1 mph N/A   Clear
7:53 AM 32.0 °F 18.6 °F 15.1 °F 50% 30.01 in 10.0 mi SW 25.3 mph 33.4 mph N/A   Clear
8:53 AM 34.0 °F 20.3 °F 15.1 °F 46% 29.99 in 10.0 mi SSW 29.9 mph 38.0 mph N/A   Clear
9:53 AM 37.0 °F 24.1 °F 16.0 °F 42% 29.96 in 10.0 mi SW 32.2 mph 41.4 mph N/A   Clear
10:53 AM 37.0 °F 24.1 °F 17.1 °F 44% 29.94 in 10.0 mi SW 32.2 mph 38.0 mph N/A   Clear
11:53 AM 37.9 °F 24.9 °F 18.0 °F 45% 29.88 in 10.0 mi SW 34.5 mph 44.9 mph N/A   Clear
12:53 PM 37.0 °F 24.7 °F 19.9 °F 50% 29.88 in 10.0 mi SSW 28.8 mph 38.0 mph N/A   Clear
1:53 PM 39.0 °F 27.4 °F 19.9 °F 46% 29.86 in 10.0 mi SW 28.8 mph - N/A   Clear
2:53 PM 37.9 °F 26.8 °F 21.0 °F 51% 29.86 in 10.0 mi SW 24.2 mph 32.2 mph N/A   Clear
3:53 PM 37.0 °F 26.2 °F 21.0 °F 52% 29.86 in 10.0 mi SW 21.9 mph - N/A   Clear
4:53 PM 35.1 °F 31.0 °F 19.9 °F 54% 29.92 in 10.0 mi North 4.6 mph - N/A   Clear
5:53 PM 27.0 °F 20.5 °F 18.0 °F 69% 29.95 in 10.0 mi SSW 5.8 mph - N/A   Clear
6:53 PM 30.9 °F - 19.0 °F 61% 29.92 in 10.0 mi Calm Calm - N/A   Partly Cloudy
7:53 PM 25.0 °F - 19.9 °F 81% 29.93 in 10.0 mi Calm Calm - N/A   Clear
8:53 PM 24.1 °F 18.2 °F 17.1 °F 75% 29.94 in 10.0 mi SSE 4.6 mph - N/A   Mostly Cloudy
9:53 PM 28.9 °F 22.8 °F 19.9 °F 69% 29.93 in 10.0 mi South 5.8 mph - N/A   Overcast
10:53 PM 28.0 °F - 19.9 °F 72% 29.94 in 10.0 mi Calm Calm - N/A   Mostly Cloudy
11:53 PM 24.1 °F - 19.9 °F 84% 29.96 in 10.0 mi Calm Calm - N/A   Overcast